Wind_Speed
6 6 5 5 5 6 6 6 5 6 6 6 6 6 6 6 6 6 6 7 7 6 7 7 7 7 7 8 8 8 8 8 9 9 9 9 9 8 9 9 8 8 8 8
7 7 6 6 6 7 7 6 6 6 6 6 6 7 7 7 7 7 7 7 7 7 7 7 7 8 8 9 9 9 9 9 9 9 9 9 8 8 9 9 8 8 8 8
8 7 6 6 6 7 7 6 5 6 6 6 7 7 7 7 7 7 7 7 7 7 7 8 8 9 9 9 9 9 9 10 10 9 9 9 8 8 8 8 8 8 8 9
8 8 7 7 7 7 7 6 5 5 6 6 7 7 7 7 7 7 7 7 6 7 8 8 8 9 9 9 10 10 9 9 9 9 9 8 8 9 8 8 8 8 9 9
8 8 7 7 7 7 6 6 6 6 6 6 7 7 7 7 8 8 8 8 8 8 9 9 9 9 9 9 10 10 10 10 10 9 9 9 9 10 10 10 10 10 10 10
8 8 8 7 7 7 6 6 6 7 7 8 7 8 8 7 8 8 8 9 9 9 10 10 10 10 10 10 11 11 11 10 10 10 10 10 11 11 11 12 12 12 12 12
8 8 8 8 7 7 7 7 8 8 8 9 9 8 8 9 9 9 9 10 10 10 10 10 10 11 11 11 11 12 12 12 12 12 12 12 12 13 13 14 14 14 13 13
8 8 7 7 7 7 7 7 8 8 9 9 9 8 9 9 10 10 10 11 11 11 11 11 12 11 11 12 12 12 13 13 14 14 13 13 14 14 14 15 15 15 15 15
8 8 7 8 9 8 8 8 8 9 10 10 10 9 9 10 11 11 11 12 12 12 12 12 12 13 13 13 14 14 14 14 15 15 15 15 15 15 14 14 16 16 16 16
9 10 9 9 9 9 9 9 9 10 11 12 11 11 11 11 11 11 12 13 13 13 13 13 13 13 14 14 15 15 15 15 15 16 17 17 16 16 16 16 16 16 17 18
9 10 10 11 10 11 11 11 11 12 13 13 12 12 12 12 13 13 13 13 14 14 14 14 14 15 15 16 16 17 17 17 16 16 17 18 18 18 18 17 17 17 19 19
11 11 12 12 12 13 13 13 14 14 14 14 14 13 13 14 14 15 15 15 15 15 15 15 16 16 17 17 17 18 18 18 18 18 18 18 18 19 19 18 19 19 19 20
13 13 13 14 14 14 14 15 15 15 16 15 15 14 15 15 16 16 16 16 17 17 17 17 17 17 17 17 18 18 19 19 19 19 19 19 19 19 19 19 19 20 20 19
14 14 15 15 15 15 15 15 16 16 17 16 16 15 16 16 16 17 18 18 18 18 18 18 18 18 19 19 19 19 19 19 20 19 20 20 20 20 20 19 20 20 21 21
16 16 16 16 16 16 16 15 16 17 17 17 17 17 17 18 18 19 19 19 19 20 20 19 20 20 20 20 20 20 20 20 20 20 21 21 21 21 20 20 20 20 20 21
19 18 18 18 17 17 17 16 17 18 18 18 18 17 18 19 20 20 21 20 20 20 20 21 21 21 21 22 22 22 21 21 21 21 21 22 22 22 22 22 21 21 21 22
20 20 20 20 19 20 19 18 19 19 20 19 19 19 20 20 21 21 21 21 22 22 22 22 22 22 22 23 23 23 23 22 22 22 22 22 22 23 23 23 23 23 23 23
22 22 22 21 21 22 20 20 20 21 21 21 21 20 21 21 21 22 22 23 22 23 23 23 23 24 24 24 24 24 24 24 24 23 23 23 23 23 24 24 24 25 25 25
23 23 24 23 23 22 21 20 21 22 22 22 22 22 22 23 23 23 24 24 24 25 25 25 25 25 25 25 26 26 26 26 26 25 25 25 25 25 25 25 25 26 27 27
23 24 25 25 24 23 21 21 22 22 22 22 23 23 24 24 25 24 25 25 25 25 26 26 26 25 25 26 26 27 27 27 27 27 27 27 27 27 27 27 27 28 28 29
23 24 25 25 25 24 23 23 23 23 23 24 24 24 25 25 26 26 27 27 27 28 28 27 27 27 27 27 27 27 27 28 28 28 28 28 28 28 28 28 29 29 29 29
25 26 26 26 26 25 24 25 25 25 25 25 25 25 26 26 27 28 28 28 29 29 29 28 28 28 29 29 28 28 28 28 28 28 28 29 29 29 29 29 29 30 30 30
26 27 27 27 26 26 26 27 27 27 27 27 27 27 27 27 28 29 29 30 30 29 30 30 30 30 30 30 29 29 29 29 29 29 29 30 30 31 30 30 30 31 31 31
26 27 27 27 27 27 28 28 29 29 29 29 28 28 28 28 29 30 30 30 30 30 30 30 30 30 31 31 31 30 31 31 30 30 30 31 31 31 31 31 31 31 31 32
26 27 28 28 28 28 29 30 30 30 30 29 29 29 29 30 30 31 31 31 31 31 31 31 32 32 32 32 32 32 32 32 32 32 32 32 32 32 32 32 33 33 33 33
26 27 28 28 28 29 30 30 30 30 30 30 30 30 30 31 31 31 31 31 31 32 32 32 32 32 33 33 33 33 33 33 33 33 33 33 33 33 33 33 34 34 34 34
Wind_Direction
255 255 255 257 261 264 265 264 268 269 265 265 266 262 263 268 272 268 269 276 274 272 266 265 269 266 265 263 264 267 270 273 274 269 269 271 272 272 274 277 279 282 284 287
249 253 256 257 263 268 268 263 266 266 265 265 267 265 265 268 273 270 270 270 269 270 268 264 263 263 264 265 268 271 273 274 275 274 270 269 272 273 275 274 276 279 281 285
250 249 252 257 263 267 265 266 267 264 260 263 269 265 267 270 270 271 271 274 272 273 273 270 266 267 267 269 271 274 274 274 272 274 271 271 275 276 275 276 278 281 282 285
249 253 252 254 260 264 267 272 270 270 264 264 269 266 267 272 273 273 275 277 277 275 275 276 274 273 273 273 273 274 275 275 276 277 275 274 273 273 272 274 279 282 283 285
246 250 250 252 256 259 268 273 273 273 272 269 275 277 276 276 275 275 274 277 277 278 279 278 277 276 276 276 277 277 276 275 273 274 274 273 272 273 273 276 277 281 282 283
244 244 246 248 248 254 263 267 270 274 277 278 281 284 284 286 285 285 283 283 282 284 285 281 279 280 280 278 278 279 277 276 275 278 279 278 275 275 276 277 278 280 280 282
239 242 244 246 246 251 255 264 270 274 277 284 285 283 286 290 291 289 286 286 285 285 285 282 283 283 282 279 278 278 277 278 278 277 277 280 279 277 273 273 276 277 277 279
248 251 248 246 251 255 255 261 271 277 283 285 285 284 284 289 291 290 288 287 287 285 284 283 284 284 284 283 281 280 277 276 276 277 275 277 279 280 279 275 275 275 275 276
251 251 255 255 253 257 258 260 271 279 284 286 286 289 284 285 288 289 290 291 288 286 285 283 283 283 282 282 280 278 277 276 275 275 276 276 277 279 281 279 275 274 274 275
252 252 255 259 261 260 263 267 274 280 286 289 286 285 286 287 287 287 288 289 288 288 286 282 282 282 281 280 278 276 276 277 277 276 275 276 277 278 277 276 276 274 273 274
256 256 255 259 263 265 265 268 274 283 286 290 288 287 288 287 287 286 287 288 288 287 286 283 282 282 283 282 283 280 277 277 277 277 277 275 275 275 276 276 277 277 274 275
258 260 261 263 268 269 268 272 274 283 291 287 286 286 287 288 289 289 288 288 288 288 286 284 283 284 284 285 285 284 281 279 278 278 279 279 279 278 277 278 278 279 278 275
260 263 265 265 268 271 272 275 275 280 287 284 284 287 288 288 288 289 289 288 288 290 289 286 285 284 285 286 286 284 281 279 278 277 278 280 280 278 276 275 277 278 279 278
261 264 265 267 271 273 273 274 275 278 284 283 284 286 286 288 288 289 289 288 287 288 289 288 286 284 285 285 285 284 281 280 278 277 277 277 278 279 277 277 278 280 279 279
263 266 267 268 270 271 272 273 276 277 281 283 284 286 288 290 290 290 289 288 287 287 287 288 286 284 284 283 282 281 281 281 280 279 278 278 278 279 278 277 278 280 280 278
264 267 268 269 271 272 271 271 273 274 279 283 284 287 289 290 290 290 290 288 287 287 287 287 287 285 284 282 281 280 280 280 281 281 281 280 279 279 278 277 278 279 280 280
264 267 269 269 271 272 270 271 272 275 278 281 283 283 286 289 291 292 290 290 289 288 287 288 288 286 285 283 281 280 280 280 280 280 280 280 279 278 277 277 278 279 279 280
265 267 270 270 272 272 275 273 273 275 277 280 282 283 286 289 292 292 291 289 288 288 288 287 287 286 284 283 281 279 279 279 279 279 279 279 279 278 277 277 278 278 278 278
266 267 268 270 271 273 274 276 276 276 277 279 282 283 285 287 290 290 290 289 289 288 287 288 288 287 284 282 280 279 278 278 278 278 278 278 278 278 278 277 278 279 279 279
265 267 268 271 273 275 276 277 277 278 279 281 284 285 285 286 287 289 288 287 288 287 287 288 289 287 285 283 282 280 279 278 277 277 277 277 277 278 277 277 278 278 279 279
265 268 270 272 273 276 278 278 280 280 282 283 284 286 286 286 288 288 288 288 288 288 288 289 288 287 285 284 283 282 281 279 278 277 277 277 277 278 278 278 278 278 278 279
266 268 270 272 273 277 278 279 280 283 284 285 285 286 285 286 287 288 289 289 289 289 289 290 289 287 285 284 284 283 282 281 280 278 278 278 278 278 279 279 279 278 278 279
266 268 270 272 274 275 277 278 280 282 283 285 285 286 286 285 285 287 288 289 289 288 289 289 288 287 287 285 284 283 282 281 280 280 279 279 279 279 278 278 278 278 278 278
267 269 270 272 274 275 276 278 279 280 281 281 283 283 284 284 284 285 288 290 290 288 288 288 287 286 285 284 284 283 282 282 281 280 280 280 280 279 279 278 278 278 279 279
268 269 271 273 274 275 276 278 280 280 281 281 281 281 281 283 285 286 287 289 290 289 288 288 287 286 285 284 283 283 283 281 281 281 281 281 280 280 279 278 278 278 279 279
268 270 271 273 275 277 279 280 280 280 281 281 282 283 284 285 286 287 288 289 289 289 288 289 288 287 286 284 283 283 282 282 282 281 280 280 281 281 280 280 279 279 280 280
Height
5850 5851 5851 5851 5851 5851 5851 5852 5852 5852 5852 5853 5853 5853 5853 5853 5853 5853 5853 5853 5852 5852 5852 5852 5852 5851 5851 5851 5851 5851 5851 5851 5850 5850 5850 5850 5849 5849 5849 5848 5848 5847 5847 5846
5849 5849 5850 5850 5850 5850 5850 5850 5851 5851 5851 5851 5851 5851 5852 5852 5851 5851 5851 5851 5851 5851 5850 5850 5850 5850 5849 5849 5849 5849 5849 5848 5848 5848 5848 5847 5847 5847 5847 5846 5846 5845 5845 5844
5847 5848 5848 5848 5848 5848 5849 5849 5850 5850 5850 5850 5850 5850 5851 5850 5850 5850 5850 5849 5849 5849 5849 5848 5848 5848 5847 5847 5847 5846 5846 5846 5846 5846 5845 5845 5844 5845 5845 5844 5844 5843 5843 5842
5845 5846 5846 5847 5847 5847 5847 5848 5848 5848 5848 5848 5849 5849 5849 5849 5848 5848 5848 5848 5847 5847 5847 5846 5846 5846 5845 5845 5844 5844 5844 5844 5843 5843 5843 5842 5842 5842 5842 5842 5841 5841 5840 5840
5843 5844 5844 5845 5845 5846 5846 5846 5847 5847 5847 5847 5847 5847 5848 5847 5847 5847 5847 5846 5846 5845 5845 5844 5844 5843 5843 5842 5842 5842 5841 5841 5841 5841 5840 5840 5840 5840 5840 5839 5839 5838 5837 5837
5841 5842 5843 5843 5843 5844 5844 5845 5845 5845 5845 5845 5845 5845 5846 5845 5845 5844 5844 5844 5843 5843 5842 5842 5841 5841 5840 5840 5839 5839 5838 5838 5838 5838 5838 5837 5837 5837 5836 5836 5835 5835 5834 5834
5840 5840 5841 5841 5842 5842 5843 5844 5844 5843 5843 5843 5844 5843 5844 5843 5843 5842 5842 5841 5841 5840 5840 5839 5838 5838 5838 5837 5836 5836 5836 5835 5835 5835 5834 5834 5834 5833 5833 5832 5832 5831 5831 5830
5838 5839 5839 5839 5840 5841 5841 5842 5843 5842 5842 5841 5841 5841 5842 5841 5841 5840 5839 5839 5838 5837 5837 5836 5836 5835 5835 5834 5833 5833 5833 5832 5832 5831 5831 5830 5830 5829 5829 5828 5828 5827 5827 5826
5836 5837 5837 5838 5838 5839 5839 5839 5841 5840 5840 5839 5839 5840 5840 5839 5838 5837 5837 5836 5835 5834 5834 5834 5833 5832 5831 5831 5830 5829 5829 5828 5828 5828 5827 5827 5826 5825 5824 5824 5823 5822 5822 5822
5834 5835 5836 5836 5836 5837 5838 5838 5838 5838 5837 5837 5837 5837 5837 5836 5836 5835 5834 5833 5832 5831 5831 5830 5829 5829 5828 5827 5826 5825 5825 5824 5824 5823 5822 5822 5821 5820 5820 5819 5818 5817 5817 5817
5832 5833 5834 5834 5834 5834 5835 5836 5835 5835 5834 5834 5834 5837 5835 5833 5832 5832 5831 5830 5829 5828 5827 5826 5826 5825 5824 5823 5822 5821 5820 5820 5819 5818 5817 5817 5816 5815 5815 5814 5813 5812 5812 5811
5829 5830 5830 5831 5831 5831 5832 5832 5832 5832 5832 5831 5831 5834 5831 5830 5829 5828 5827 5826 5825 5824 5823 5822 5821 5820 5819 5818 5817 5816 5815 5814 5814 5813 5812 5811 5810 5810 5809 5808 5808 5807 5806 5805
5826 5827 5827 5828 5830 5829 5828 5828 5828 5828 5828 5827 5827 5830 5827 5826 5825 5824 5823 5822 5821 5820 5819 5818 5817 5816 5814 5813 5812 5811 5810 5809 5808 5807 5806 5806 5805 5804 5803 5802 5802 5801 5800 5799
5823 5823 5825 5825 5825 5825 5825 5825 5825 5824 5824 5823 5824 5824 5823 5821 5820 5819 5818 5817 5816 5815 5814 5813 5812 5810 5809 5808 5807 5805 5804 5803 5802 5801 5801 5800 5799 5798 5797 5797 5796 5795 5794 5793
5819 5820 5820 5820 5820 5820 5821 5821 5821 5820 5820 5820 5820 5819 5818 5817 5816 5815 5813 5812 5811 5810 5809 5807 5806 5805 5804 5802 5801 5800 5798 5797 5796 5795 5795 5794 5793 5792 5791 5790 5789 5789 5788 5787
5815 5815 5815 5816 5816 5816 5816 5817 5816 5816 5815 5815 5815 5815 5814 5812 5811 5810 5808 5807 5806 5804 5803 5802 5800 5799 5798 5796 5795 5794 5792 5791 5790 5789 5788 5787 5786 5786 5785 5784 5783 5783 5782 5781
5810 5810 5810 5811 5811 5810 5811 5812 5811 5811 5811 5810 5810 5810 5808 5807 5805 5804 5803 5801 5800 5798 5797 5795 5794 5792 5791 5790 5788 5787 5786 5785 5784 5783 5782 5781 5780 5779 5778 5777 5777 5776 5775 5774
5804 5805 5805 5805 5806 5805 5809 5807 5806 5806 5805 5805 5804 5803 5802 5801 5800 5798 5797 5795 5794 5792 5791 5789 5787 5786 5784 5782 5781 5780 5779 5778 5777 5776 5775 5774 5773 5772 5771 5770 5770 5769 5768 5767
5799 5799 5799 5799 5799 5799 5802 5801 5800 5800 5799 5799 5798 5797 5796 5795 5794 5793 5791 5789 5787 5786 5784 5782 5780 5778 5777 5775 5774 5772 5771 5770 5769 5768 5767 5766 5765 5765 5764 5763 5762 5761 5760 5759
5793 5793 5793 5793 5793 5793 5796 5795 5793 5794 5793 5793 5792 5791 5790 5789 5788 5787 5784 5782 5780 5778 5776 5775 5773 5771 5769 5768 5766 5765 5763 5762 5761 5761 5760 5758 5757 5757 5756 5755 5754 5753 5752 5751
5787 5787 5787 5787 5786 5787 5788 5787 5787 5788 5788 5786 5785 5784 5783 5782 5781 5779 5777 5775 5773 5771 5769 5767 5765 5763 5761 5760 5758 5757 5755 5754 5753 5752 5751 5750 5749 5748 5747 5746 5745 5744 5743 5742
5780 5780 5780 5780 5780 5783 5781 5780 5781 5780 5779 5778 5777 5776 5776 5774 5773 5771 5769 5767 5765 5763 5761 5759 5757 5755 5753 5751 5750 5748 5747 5746 5744 5743 5742 5741 5740 5739 5738 5737 5736 5735 5734 5732
5773 5774 5773 5774 5775 5774 5774 5773 5773 5772 5771 5771 5770 5769 5768 5767 5765 5763 5761 5759 5757 5755 5753 5751 5749 5747 5745 5743 5741 5740 5738 5737 5735 5734 5733 5732 5731 5730 5728 5727 5726 5725 5724 5723
5766 5766 5766 5766 5767 5766 5766 5765 5765 5765 5764 5763 5762 5761 5760 5759 5757 5755 5753 5751 5749 5747 5744 5742 5740 5738 5736 5734 5732 5731 5729 5728 5726 5725 5724 5723 5721 5720 5719 5718 5716 5715 5714 5713
5759 5759 5759 5759 5759 5759 5758 5758 5757 5757 5756 5755 5754 5753 5751 5750 5748 5746 5744 5742 5740 5737 5735 5733 5731 5729 5727 5724 5723 5721 5720 5718 5717 5715 5714 5713 5711 5710 5709 5708 5706 5705 5704 5702
5751 5751 5751 5751 5751 5751 5750 5750 5749 5748 5747 5746 5745 5744 5742 5741 5739 5737 5735 5733 5730 5728 5725 5723 5721 5719 5717 5715 5713 5711 5709 5708 5706 5705 5704 5702 5701 5700 5698 5697 5696 5694 5693 5691